Location: Brunsen
(51.8651°N, 9.8610°E)
Time: 11:26:20
(UTC+00:00)

UNK - Pass Details

Date: 23 May 2024
Orbit: 659 x 680 km, 98.3° (Epoch: 18 June)

Event Time Altitude Azimuth Distance (km) Brightness Sun altitude
Rises 01:43:07 0° 151° (SSE) 3,030 6.8 -10.8°
Reaches altitude 10° 01:45:22 10° 148° (SSE) 2,119 6.1 -10.6°
Maximum altitude 01:49:55 58° 70° (ENE) 795 4.4 -10.2°
Drops below altitude 10° 01:54:29 10° 352° (N) 2,130 7.0 -9.8°
Sets 01:56:45 0° 348° (NNW) 3,047 7.8 -9.6°
